Youngstown, OH

3:42 AM EST on December 16, 2019 (GMT -0500)
Youngstown-Warren Regional

Weather History for KYNG - November, 2019

Change the Weather History Date:

Tuesday, November 12, 2019

  Actual Average Record
Temperature  
Mean Temperature 22 °F 43 °F  
Max Temperature 30 °F 51 °F 73 °F (1949)
Min Temperature 15 °F 35 °F 19 °F (1950)
Degree Days  
Heating Degree Days 42 22  
Month to date heating degree days 336 244  
Since 1 July heating degree days 705 865  
Cooling Degree Days 0 0  
Month to date cooling degree days 0 0  
Year to date cooling degree days 792 544  
Moisture  
Dew Point 19 °F    
Average Humidity 80    
Maximum Humidity 88    
Minimum Humidity 71    
Precipitation  
Precipitation 0.27 in 0.10 in 0.82 in (1992)
Month to date precipitation 1.11 1.22  
Year to date precipitation 44.94 33.96  
Snow  
Snow 4.10 in 0.10 in - ()
Month to date snowfall 7.9 0.8  
Since 1 July snowfall 7.9 1.6  
Since 1 September snowfall 7.9 1.6  
Snow Depth 4.0 in    
Sea Level Pressure  
Sea Level Pressure 30.16 in    
Wind  
Wind Speed 11 mph ()    
Max Wind Speed 21 mph    
Max Gust Speed 27 mph    
Visibility 4.1 miles    
Events Snow    
T = Trace of Precipitation, MM = Missing Value Source: Averaged Metar Reports

Daily Weather History Graph

Daily Weather History Graph

Search for Another Location

Airport or City:

Astronomy

Nov. 12, 2019 Rise Set
Actual Time 7:06 AM EST 5:06 PM EST
Civil Twilight 6:37 AM EST 5:35 PM EST
Nautical Twilight 6:04 AM EST 6:08 PM EST
Astronomical Twilight 5:31 AM EST 6:41 PM EST
Moon 5:32 PM EST (11/12) 6:56 AM EST (11/12)
Length of Visible Light 10h 58m
Length of Day
9h 59m
Full, 100% of the Moon is Illuminated
Nov 12
Full
Nov 19
Last Quarter
Nov 26
New
Dec 4
First Quarter
Dec 12
Full

Hourly Weather History & Observations

Time (EST) Temp. Windchill Dew Point Humidity Pressure Visibility Wind Dir Wind Speed Gust Speed Precip Events Conditions
12:51 AM 30.0 °F 19.1 °F 26.1 °F 85% 29.96 in 2.0 mi NNW 15.0 mph - N/A Snow Light Snow
1:38 AM 30.0 °F 20.5 °F 26.1 °F 85% 29.94 in 1.5 mi NNW 11.5 mph - 0.01 in Snow Light Snow
1:51 AM 30.0 °F 19.5 °F 26.1 °F 85% 29.98 in 1.5 mi NNW 13.8 mph 20.7 mph 0.01 in Snow Light Snow
2:45 AM 28.4 °F 18.0 °F 24.8 °F 86% 29.98 in 5.0 mi NNW 12.7 mph - 0.01 in Snow Light Snow
2:51 AM 28.9 °F 19.2 °F 24.1 °F 82% 30.01 in 5.0 mi NNW 11.5 mph - 0.01 in Snow Light Snow
3:51 AM 28.0 °F 18.6 °F 24.1 °F 85% 30.02 in 9.0 mi North 10.4 mph - N/A Snow Light Snow
4:51 AM 28.0 °F 18.1 °F 23.0 °F 81% 30.05 in 7.0 mi North 11.5 mph - 0.00 in Snow Light Snow
5:51 AM 28.0 °F 18.6 °F 23.0 °F 81% 30.06 in 4.0 mi NNW 10.4 mph - 0.00 in Snow Light Snow
6:51 AM 27.0 °F 16.7 °F 23.0 °F 85% 30.09 in 1.5 mi NNW 11.5 mph - N/A Snow Light Snow
7:18 AM 27.0 °F 18.0 °F 21.9 °F 81% 30.06 in 3.0 mi NNW 9.2 mph - 0.00 in Snow Light Snow
7:41 AM 27.0 °F 17.3 °F 21.0 °F 78% 30.07 in 6.0 mi NNW 10.4 mph - 0.00 in Snow Light Snow
7:51 AM 27.0 °F 17.3 °F 21.0 °F 78% 30.12 in 6.0 mi NNW 10.4 mph - 0.00 in Snow Light Snow
8:21 AM 27.0 °F 18.0 °F 21.9 °F 81% 30.09 in 1.0 mi NNW 9.2 mph - 0.00 in Snow Light Snow
8:38 AM 27.0 °F 18.7 °F 23.0 °F 85% 30.09 in 0.8 mi NW 8.1 mph - 0.01 in Snow Light Snow
8:51 AM 27.0 °F 18.7 °F 21.9 °F 81% 30.14 in 0.5 mi NW 8.1 mph - 0.01 in Snow Snow
9:18 AM 26.1 °F 16.2 °F 21.9 °F 84% 30.10 in 3.0 mi NNW 10.4 mph - 0.02 in Snow Light Snow
9:51 AM 27.0 °F 16.1 °F 21.0 °F 78% 30.14 in 7.0 mi NW 12.7 mph - 0.02 in Snow Light Snow
10:05 AM 28.0 °F 16.5 °F 21.0 °F 75% 30.10 in 1.5 mi NNW 15.0 mph - 0.00 in Snow Light Snow
10:38 AM 26.1 °F 15.6 °F 19.9 °F 78% 30.11 in 3.0 mi NNW 11.5 mph - 0.00 in Snow Light Snow
10:45 AM 26.6 °F 15.7 °F 19.4 °F 74% 30.12 in 1.0 mi NNW 12.7 mph - 0.00 in Snow Light Snow
10:51 AM 26.1 °F 16.2 °F 19.9 °F 78% 30.17 in 1.0 mi NW 10.4 mph - 0.00 in Snow Light Snow
11:39 AM 25.0 °F 11.7 °F 21.0 °F 85% 30.13 in 0.2 mi NNW 17.3 mph 23.0 mph 0.02 in Snow Heavy Snow
11:51 AM 25.0 °F 12.2 °F 21.0 °F 85% 30.18 in 0.2 mi NNW 16.1 mph - 0.03 in Snow Heavy Snow
12:34 PM 26.1 °F 15.0 °F 19.9 °F 78% 30.13 in 0.5 mi NW 12.7 mph - 0.06 in Snow Snow
12:46 PM 24.8 °F 11.5 °F 17.6 °F 74% 30.14 in 2.0 mi NW 17.3 mph - 0.06 in Snow Light Snow
12:51 PM 25.0 °F 12.6 °F 19.0 °F 78% 30.18 in 4.0 mi NW 15.0 mph - 0.06 in Snow Light Snow
1:05 PM 26.1 °F 13.6 °F 19.9 °F 78% 30.14 in 1.0 mi NW 16.1 mph - 0.00 in Snow Light Snow
1:42 PM 24.1 °F 11.0 °F 19.0 °F 81% 30.15 in 0.8 mi NNW 16.1 mph - 0.00 in Snow Light Snow
1:51 PM 25.0 °F 13.1 °F 19.9 °F 81% 30.20 in 2.0 mi NNW 13.8 mph 24.2 mph 0.00 in Snow Light Snow
2:13 PM 24.1 °F 11.0 °F 19.0 °F 81% 30.15 in 0.5 mi NNW 16.1 mph - 0.00 in Snow Snow
2:29 PM 25.0 °F 15.5 °F 19.9 °F 81% 30.16 in 1.5 mi NW 9.2 mph - 0.01 in Snow Light Snow
2:51 PM 24.1 °F 11.5 °F 18.0 °F 77% 30.21 in 5.0 mi WNW 15.0 mph 24.2 mph 0.01 in Snow Light Snow
3:42 PM 24.1 °F 10.6 °F 16.0 °F 71% 30.19 in 9.0 mi NW 17.3 mph 24.2 mph 0.00 in   Mostly Cloudy
3:51 PM 24.1 °F 11.5 °F 17.1 °F 75% 30.24 in 10.0 mi NW 15.0 mph 25.3 mph 0.00 in   Mostly Cloudy
4:51 PM 21.9 °F 11.7 °F 14.0 °F 72% 30.26 in 9.0 mi WNW 9.2 mph - 0.00 in Snow Light Snow
5:07 PM 21.9 °F 11.7 °F 14.0 °F 72% 30.22 in 10.0 mi West 9.2 mph - 0.00 in   Mostly Cloudy
5:51 PM 19.9 °F 10.1 °F 12.0 °F 71% 30.28 in 10.0 mi West 8.1 mph - 0.00 in   Scattered Clouds
6:51 PM 18.0 °F 9.8 °F 12.0 °F 78% 30.31 in 10.0 mi West 5.8 mph - N/A   Scattered Clouds
7:51 PM 19.9 °F 10.1 °F 14.0 °F 78% 30.32 in 10.0 mi West 8.1 mph - N/A   Mostly Cloudy
8:51 PM 18.0 °F 6.9 °F 12.9 °F 81% 30.33 in 9.0 mi WSW 9.2 mph - 0.00 in Snow Light Snow
9:06 PM 19.0 °F 8.2 °F 14.0 °F 81% 30.28 in 8.0 mi WSW 9.2 mph - 0.00 in Snow Light Snow
9:41 PM 19.9 °F 9.3 °F 16.0 °F 85% 30.28 in 2.0 mi WSW 9.2 mph - 0.00 in Snow Light Snow
9:51 PM 19.9 °F 8.6 °F 16.0 °F 85% 30.34 in 1.5 mi WSW 10.4 mph - 0.00 in Snow Light Snow
10:51 PM 19.9 °F 9.3 °F 15.1 °F 81% 30.34 in 2.0 mi WSW 9.2 mph - 0.01 in Snow Light Snow
11:02 PM 19.4 °F 8.6 °F 15.8 °F 86% 30.29 in 3.0 mi WSW 9.2 mph - N/A Snow Light Snow
11:51 PM 17.1 °F 8.7 °F 12.9 °F 84% 30.35 in 9.0 mi WSW 5.8 mph - 0.00 in Snow Light Snow